[[{"header":{"parameterUnit":"m.s-1","parameterCategory":1,"la1":30.2991,"la2":30.254,"lo1":-89.0895,"lo2":-89.0444,"dy":0.0017,"dx":0.0017,"nx":28,"ny":28,"refTime":"2025-05-29T09:00:00:Z","depth":0,"parameterNumber":2,"parameterNumberName":"U-component_of_WINDS"},"data":[0,0,0,0,0,0,0,0,0,0,0,0,0,0,0,0,0,0,0,0,0,0,0,0,0,0,0,0,0,0,0,0,0,0,0,0,0,0,0,0,0,0,0,0,0,0,0,0,0,0,0,0,0,0,0,0,0,0,0.5011,0.5012,0,0.5139,0.5141,0.5142,0.5248,0.5249,0.525,0.5252,0.5379,0.5381,0.5384,0,0,0,0,0,0,0,0,0,0,0,0,0,0.4853,0.4856,0.5011,0.5012,0.5014,0.5139,0.5141,0.5142,0.5248,0.5249,0.5251,0.5252,0.5378,0.5381,0.5384,0,0,0,0,0,0,0,0,0,0,0,0,0,0.4945,0.4856,0.501,0.5082,0.5089,0.5139,0.5141,0.5143,0.5248,0.5249,0.5251,0.5253,0.5377,0.5381,0.5384,0.5372,0,0,0.5395,0.5396,0,0,0,0,0,0,0,0,0.494,0.4951,0.507,0.5077,0.5086,0.518,0.5132,0.5219,0.5247,0.5187,0.5252,0.5254,0.5311,0.532,0.534,0.5378,0.5383,0.5395,0.5397,0.5399,0.54,0,0,0,0,0,0,0,0.4934,0.4946,0.5061,0.5071,0.5081,0.5106,0.5121,0.5149,0.5238,0.5193,0.5201,0.5215,0.5316,0.5337,0.5344,0.5385,0.5395,0.5398,0.54,0.5402,0.5417,0.5415,0,0,0,0,0,0,0.4917,0.494,0.5057,0.5065,0.5016,0.5108,0.5124,0.5148,0.5238,0.5254,0.5213,0.5219,0.533,0.534,0.5349,0.5338,0.5399,0.5402,0.5404,0.5418,0.5416,0.5415,0,0,0,0,0,0,0.4913,0.4926,0.5052,0.5005,0.5023,0.5109,0.5134,0.5149,0.517,0.5254,0.5269,0.5218,0.5332,0.5344,0.5365,0.5344,0.5404,0.5407,0.542,0.5418,0.5415,0.5318,0,0,0,0,0,0,0.4908,0.4924,0.4921,0.5004,0.5025,0.5067,0.5133,0.515,0.5176,0.5186,0.5263,0.5277,0.5334,0.5359,0.5369,0.535,0.541,0.5423,0.5419,0.5416,0.5323,0.5312,0.5303,0,0,0,0,0,0.4902,0.4888,0.492,0.4934,0.5023,0.5066,0.5077,0.5144,0.5174,0.5171,0.5225,0.5275,0.5346,0.5361,0.5372,0.5354,0.5424,0.542,0.5417,0.5328,0.5315,0.5303,0,0,0,0,0,0,0.4799,0.49,0.4937,0.495,0.4998,0.5083,0.5081,0.5128,0.5168,0.5175,0.5255,0.5271,0.5283,0.5322,0.5336,0.5346,0.5391,0.539,0.532,0.5308,0.5298,0.5287,0.5413,0,0,0,0,0,0.4778,0.4805,0.4892,0.4895,0.4917,0.4995,0.5016,0.5063,0.5116,0.5137,0.5192,0.524,0.5274,0.5294,0.5329,0.5331,0.5347,0.5324,0.5314,0.5305,0.5301,0.5303,0.5293,0.5402,0.5402,0.5402,0,0,0.4734,0.4793,0.4805,0.4876,0.4919,0.4943,0.5011,0.5035,0.5054,0.514,0.5163,0.5205,0.5264,0.5275,0.5282,0.5307,0.5275,0.53,0.5292,0.5294,0.5298,0.5287,0.5278,0.5399,0.54,0.54,0,0,0.4667,0.4715,0.4722,0.4764,0.4829,0.4881,0.4882,0.496,0.4992,0.5017,0.5082,0.5105,0.5161,0.52,0.5227,0.5174,0.522,0.5183,0.5129,0.5129,0.5121,0.5113,0.5092,0.5083,0.518,0.518,0.518,0,0.4604,0.4645,0.4719,0.4739,0.4767,0.4848,0.4854,0.4891,0.4964,0.498,0.5008,0.5079,0.5125,0.5145,0.5132,0.5152,0.5154,0.5174,0.5116,0.511,0.5104,0.5084,0.5076,0.5175,0.5176,0.5176,0.5177,0,0.4563,0.459,0.4588,0.4656,0.4685,0.4697,0.4772,0.4792,0.4837,0.4885,0.4908,0.4966,0.5014,0.5023,0.5067,0.5048,0.5061,0.5102,0.5148,0.5087,0.507,0.5063,0.5168,0.5169,0.5171,0.5172,0,0,0.4432,0.4542,0.454,0.4571,0.4649,0.4671,0.4687,0.4735,0.4749,0.4796,0.481,0.4856,0.4893,0.4924,0.4973,0.4974,0.4925,0.5014,0.5016,0.4993,0.4905,0.4872,0.4862,0.4958,0.4957,0.4956,0.4899,0,0.4375,0.4409,0.4476,0.4488,0.4513,0.4591,0.4605,0.4653,0.4698,0.4725,0.4776,0.4806,0.4855,0.4873,0.4878,0.493,0.4908,0.4935,0.4968,0.4969,0.4948,0.4854,0.4819,0.4762,0.4893,0.4892,0.4891,0,0.4312,0.4355,0.437,0.4445,0.4458,0.4469,0.4518,0.4543,0.4599,0.4632,0.4666,0.4721,0.474,0.4785,0.4811,0.4828,0.4846,0.4874,0.4873,0.4876,0.4924,0.4851,0.4746,0.4736,0.4882,0.4883,0.4883,0,0.4211,0.4274,0.429,0.4315,0.4404,0.4409,0.4446,0.4504,0.4528,0.4571,0.4587,0.463,0.4653,0.4685,0.4749,0.4776,0.4767,0.4818,0.4792,0.479,0.4784,0.4783,0.4678,0.4801,0.4801,0.4801,0.4801,0,0.4138,0.4143,0.4246,0.4255,0.4263,0.434,0.4345,0.4389,0.444,0.4458,0.4529,0.4544,0.463,0.4654,0.4705,0.4717,0.4728,0.4753,0.4766,0.4745,0.4741,0.4755,0.4759,0.4799,0.48,0.48,0.48,0,0.4026,0.4095,0.4117,0.42,0.4221,0.4222,0.4293,0.4304,0.4355,0.4377,0.4386,0.4465,0.4498,0.4566,0.4617,0.4651,0.465,0.4675,0.4631,0.4638,0.4608,0.4608,0.4505,0.4494,0.4627,0.4625,0.4624,0,0.3973,0.3979,0.4062,0.408,0.4115,0.4143,0.4168,0.4245,0.4267,0.4331,0.4334,0.4373,0.4407,0.4456,0.4516,0.4555,0.458,0.4541,0.4586,0.4564,0.4575,0.4572,0.4572,0.4529,0.4528,0.4526,0.4525,0,0.3871,0.3905,0.3939,0.3985,0.4013,0.4052,0.4095,0.4105,0.4192,0.4214,0.4248,0.4275,0.4328,0.4364,0.4412,0.4449,0.45,0.4511,0.4507,0.4483,0.4456,0.4467,0.46,0.4512,0.4513,0.4514,0.4515,0.4516,0.3785,0.3793,0.3853,0.3888,0.3929,0.3967,0.3981,0.4034,0.4065,0.4114,0.4158,0.4188,0.4243,0.4313,0.4346,0.437,0.4395,0.4389,0.4387,0.4384,0.4373,0.4455,0.4379,0.438,0.438,0.438,0.4381,0,0.3684,0.3727,0.3758,0.3816,0.3843,0.3892,0.3942,0.3961,0.3987,0.4034,0.4067,0.4106,0.4142,0.4206,0.4246,0.4252,0.4276,0.426,0.4259,0.4266,0.435,0.4348,0.424,0.424,0.424,0.424,0.424,0.424,0.3634,0.3649,0.369,0.3726,0.3769,0.38,0.3823,0.3859,0.3897,0.3937,0.3968,0.401,0.4063,0.4108,0.4142,0.416,0.417,0.4145,0.417,0.4247,0.426,0.4272,0.4271,0.4148,0.4148,0.4083,0.4082,0.4082]},{"header":{"parameterUnit":"m.s-1","parameterCategory":1,"la1":30.2991,"la2":30.254,"lo1":-89.0895,"lo2":-89.0444,"dy":0.0017,"dx":0.0017,"nx":28,"ny":28,"refTime":"2025-05-29T09:00:00:Z","depth":0,"parameterNumber":3,"parameterNumberName":"V-component_of_WINDS"},"data":[0,0,0,0,0,0,0,0,0,0,0,0,0,0,0,0,0,0,0,0,0,0,0,0,0,0,0,0,0,0,0,0,0,0,0,0,0,0,0,0,0,0,0,0,0,0,0,0,0,0,0,0,0,0,0,0,0,0,-4.8273,-4.8271,0,-4.8103,-4.8101,-4.8099,-4.7948,-4.7946,-4.7945,-4.7943,-4.7761,-4.7757,-4.7754,0,0,0,0,0,0,0,0,0,0,0,0,0,-4.8457,-4.8454,-4.8273,-4.8271,-4.8269,-4.8103,-4.8101,-4.8099,-4.7949,-4.7946,-4.7944,-4.7942,-4.7762,-4.7758,-4.7754,0,0,0,0,0,0,0,0,0,0,0,0,0,-4.8341,-4.8453,-4.8273,-4.8174,-4.8163,-4.8104,-4.8101,-4.8098,-4.7949,-4.7946,-4.7944,-4.7941,-4.7763,-4.7758,-4.7753,-4.7776,0,0,-4.7739,-4.7736,0,0,0,0,0,0,0,0,-4.8348,-4.8334,-4.8191,-4.8181,-4.8169,-4.8044,-4.8099,-4.799,-4.795,-4.803,-4.7943,-4.794,-4.7856,-4.7844,-4.7817,-4.7767,-4.7759,-4.7738,-4.7735,-4.7733,-4.7732,0,0,0,0,0,0,0,-4.8356,-4.8341,-4.8205,-4.8189,-4.8175,-4.8135,-4.8115,-4.8077,-4.796,-4.8023,-4.8012,-4.7994,-4.785,-4.7823,-4.7812,-4.7757,-4.7738,-4.7734,-4.7731,-4.7729,-4.7713,-4.7715,0,0,0,0,0,0,-4.838,-4.8348,-4.8211,-4.82,-4.8254,-4.8134,-4.8112,-4.8087,-4.796,-4.7938,-4.7996,-4.7988,-4.7832,-4.7818,-4.7805,-4.7821,-4.7733,-4.7729,-4.7726,-4.771,-4.7713,-4.7716,0,0,0,0,0,0,-4.8385,-4.837,-4.8217,-4.8271,-4.8249,-4.8133,-4.8106,-4.8085,-4.8057,-4.794,-4.7917,-4.7991,-4.7829,-4.7812,-4.7784,-4.7812,-4.7726,-4.7722,-4.7707,-4.7711,-4.7715,-4.7855,0,0,0,0,0,0,-4.8391,-4.8372,-4.8382,-4.8273,-4.8247,-4.8203,-4.8108,-4.8083,-4.805,-4.8037,-4.7929,-4.7908,-4.7826,-4.7792,-4.7779,-4.7804,-4.7718,-4.7704,-4.7709,-4.7713,-4.7847,-4.7863,-4.7876,0,0,0,0,0,-4.8398,-4.8427,-4.8383,-4.8368,-4.8257,-4.8205,-4.819,-4.8098,-4.8054,-4.806,-4.7985,-4.7911,-4.7812,-4.7791,-4.7775,-4.7799,-4.7702,-4.7708,-4.7713,-4.784,-4.786,-4.7876,0,0,0,0,0,0,-4.854,-4.8411,-4.8361,-4.8356,-4.8293,-4.818,-4.8186,-4.8121,-4.8067,-4.8057,-4.7942,-4.7918,-4.7903,-4.7847,-4.7826,-4.7812,-4.7747,-4.775,-4.7849,-4.7866,-4.7881,-4.7893,-4.7714,0,0,0,0,0,-4.8571,-4.8543,-4.843,-4.8436,-4.8407,-4.8303,-4.8277,-4.8211,-4.814,-4.8112,-4.8034,-4.7965,-4.7917,-4.7889,-4.7839,-4.7838,-4.781,-4.7847,-4.7861,-4.7874,-4.7877,-4.7869,-4.7883,-4.7734,-4.7734,-4.7734,0,0,-4.8634,-4.856,-4.8549,-4.8463,-4.8406,-4.8376,-4.8281,-4.8254,-4.8229,-4.8106,-4.8076,-4.8017,-4.7931,-4.7917,-4.7907,-4.7871,-4.7912,-4.7881,-4.7892,-4.7888,-4.7877,-4.7891,-4.7904,-4.7738,-4.7737,-4.7737,0,0,-4.8733,-4.8676,-4.8674,-4.8619,-4.8536,-4.8466,-4.8466,-4.8362,-4.8319,-4.8287,-4.8193,-4.8161,-4.8083,-4.8026,-4.7986,-4.8063,-4.7993,-4.805,-4.8126,-4.812,-4.8132,-4.8141,-4.8166,-4.8177,-4.8054,-4.8054,-4.8054,0,-4.8821,-4.8776,-4.868,-4.8659,-4.8622,-4.8512,-4.8507,-4.8458,-4.8362,-4.8337,-4.8299,-4.8198,-4.8133,-4.8103,-4.8122,-4.8094,-4.8087,-4.8061,-4.8138,-4.8147,-4.8155,-4.8177,-4.8187,-4.8062,-4.8061,-4.806,-4.8059,0,-4.8887,-4.8856,-4.8864,-4.8777,-4.8741,-4.8728,-4.8627,-4.8602,-4.8539,-4.8473,-4.844,-4.8358,-4.8289,-4.8277,-4.8215,-4.8237,-4.8217,-4.8161,-4.8092,-4.8178,-4.8197,-4.8205,-4.8072,-4.807,-4.8067,-4.8065,0,0,-4.907,-4.893,-4.8934,-4.8893,-4.8792,-4.8765,-4.8745,-4.868,-4.866,-4.8597,-4.8575,-4.8511,-4.8458,-4.8414,-4.8343,-4.8339,-4.8402,-4.8282,-4.8278,-4.8305,-4.8418,-4.846,-4.8472,-4.8355,-4.8356,-4.8357,-4.8424,0,-4.9151,-4.9113,-4.9026,-4.9014,-4.8983,-4.8877,-4.8859,-4.8794,-4.8731,-4.8692,-4.862,-4.8577,-4.8511,-4.8483,-4.8474,-4.8397,-4.8423,-4.8391,-4.833,-4.8329,-4.8354,-4.8482,-4.8527,-4.8594,-4.8431,-4.8432,-4.8433,0,-4.9241,-4.9187,-4.9173,-4.9073,-4.9056,-4.9043,-4.8975,-4.8941,-4.8863,-4.8817,-4.8768,-4.8691,-4.866,-4.8599,-4.8554,-4.8534,-4.8504,-4.8462,-4.8462,-4.8451,-4.8386,-4.8473,-4.8613,-4.8623,-4.8444,-4.8443,-4.8443,0,-4.9374,-4.9297,-4.9278,-4.9246,-4.9129,-4.9121,-4.9072,-4.8992,-4.8958,-4.8898,-4.8874,-4.881,-4.8775,-4.8726,-4.8632,-4.8597,-4.8596,-4.8528,-4.8554,-4.8556,-4.8557,-4.8558,-4.8693,-4.8542,-4.8541,-4.8541,-4.8541,0,-4.9473,-4.9468,-4.9336,-4.9324,-4.9314,-4.9213,-4.9204,-4.9144,-4.9074,-4.9045,-4.8949,-4.8924,-4.8804,-4.8763,-4.869,-4.8662,-4.8647,-4.8606,-4.8586,-4.8614,-4.8619,-4.8591,-4.8583,-4.8544,-4.8543,-4.8543,-4.8542,0,-4.9619,-4.9532,-4.9503,-4.9396,-4.9368,-4.9365,-4.9271,-4.9254,-4.9185,-4.915,-4.9136,-4.9027,-4.8974,-4.8877,-4.8796,-4.8746,-4.8733,-4.87,-4.876,-4.8748,-4.8779,-4.8777,-4.8899,-4.8908,-4.8754,-4.8756,-4.8757,0,-4.9687,-4.9681,-4.9573,-4.9549,-4.9504,-4.9466,-4.9432,-4.933,-4.9297,-4.9208,-4.9201,-4.9141,-4.9088,-4.9009,-4.8919,-4.8856,-4.8819,-4.8867,-4.8809,-4.8836,-4.8817,-4.8818,-4.8816,-4.8879,-4.8882,-4.8883,-4.8885,0,-4.9817,-4.9774,-4.9729,-4.967,-4.9632,-4.9579,-4.952,-4.9505,-4.9389,-4.9357,-4.9304,-4.9263,-4.9181,-4.9122,-4.9046,-4.899,-4.8917,-4.8904,-4.8906,-4.8933,-4.8968,-4.8947,-4.8794,-4.8901,-4.89,-4.8898,-4.8897,-4.8897,-4.9924,-4.9913,-4.9836,-4.9789,-4.9735,-4.9682,-4.966,-4.959,-4.9545,-4.9472,-4.9414,-4.9365,-4.9284,-4.9175,-4.9124,-4.9081,-4.9047,-4.9051,-4.9051,-4.9053,-4.9064,-4.8977,-4.9067,-4.9066,-4.9066,-4.9065,-4.9065,0,-5.0047,-4.9992,-4.995,-4.9873,-4.9835,-4.9773,-4.9705,-4.9676,-4.9636,-4.9568,-4.9519,-4.9456,-4.9398,-4.9305,-4.9238,-4.9222,-4.9186,-4.9207,-4.9206,-4.9194,-4.9099,-4.9103,-4.9237,-4.9237,-4.9237,-4.9237,-4.9237,-4.9237,-5.0107,-5.0084,-5.0032,-4.998,-4.9923,-4.9877,-4.9843,-4.9793,-4.9738,-4.9674,-4.9627,-4.9568,-4.9488,-4.9415,-4.9358,-4.9331,-4.931,-4.9342,-4.9305,-4.9217,-4.9201,-4.9186,-4.9189,-4.9338,-4.9339,-4.9402,-4.9403,-4.9403]}]]